NJE71P EKYT-LIME

Flight info

Callsign NJE71P
Flight time 1h 46m
Altitude 39000
Route AAL P615 ALS M852 ALASA DCT TOLGI Y867 WRB DCT NATOR N850 ODINA
Aircraft CL60/M-SBDE1E2E3FGHIJ1J4J5J7M3RWXYZ/LB1V1D1

Departure

Time 2026-05-01 10:30
Airport Aalborg Airport (EKYT)

Arrival

Time 2026-05-01 12:16
Airport Il Caravaggio International Airport (LIME)
Time Latitude Longitude Altitude Speed Heading
2026-05-01 09:57 57.08569 9.86836 15 ft 0 kts 141°
2026-05-01 10:25 57.08561 9.86849 15 ft 3 kts 130°
2026-05-01 10:26 57.08571 9.86895 15 ft 4 kts 51°
2026-05-01 10:26 57.08598 9.86956 15 ft 6 kts 22°
2026-05-01 10:26 57.08700 9.86806 15 ft 12 kts 319°
2026-05-01 10:27 57.08873 9.86553 15 ft 18 kts 322°
2026-05-01 10:27 57.09110 9.86214 15 ft 24 kts 323°
2026-05-01 10:28 57.09249 9.86016 16 ft 26 kts 322°
2026-05-01 10:28 57.09465 9.85716 16 ft 13 kts 321°
2026-05-01 10:28 57.09522 9.85668 16 ft 9 kts 286°
2026-05-01 10:29 57.09459 9.84652 15 ft 128 kts 262°
2026-05-01 10:29 57.09316 9.82701 485 ft 174 kts 263°
2026-05-01 10:30 57.10965 9.78560 1561 ft 257 kts 341°
2026-05-01 10:30 57.14310 9.80476 2577 ft 274 kts 52°
2026-05-01 10:31 57.14617 9.87078 3646 ft 274 kts 118°
2026-05-01 10:31 57.12785 9.93312 4652 ft 280 kts 121°
2026-05-01 10:32 57.10215 9.98472 5630 ft 277 kts 157°
2026-05-01 10:32 57.08406 9.99493 6150 ft 273 kts 178°
2026-05-01 10:32 57.04629 9.99570 7163 ft 273 kts 183°
2026-05-01 10:33 57.00802 9.99567 8157 ft 277 kts 183°
2026-05-01 10:33 56.96984 9.99562 9454 ft 276 kts 182°
2026-05-01 10:34 56.95062 9.99558 10212 ft 283 kts 182°
2026-05-01 10:34 56.93077 9.99553 10964 ft 294 kts 182°
2026-05-01 10:34 56.90962 9.99547 11706 ft 314 kts 182°
2026-05-01 10:35 56.86326 9.99537 13237 ft 347 kts 182°
2026-05-01 10:35 56.83895 9.99533 13979 ft 359 kts 182°
2026-05-01 10:35 56.81376 9.99532 14768 ft 365 kts 182°
2026-05-01 10:35 56.78824 9.99532 15542 ft 369 kts 182°
2026-05-01 10:36 56.73676 9.99531 17160 ft 376 kts 182°
2026-05-01 10:36 56.71028 9.99529 17931 ft 382 kts 182°
2026-05-01 10:36 56.68376 9.99527 18688 ft 387 kts 182°
2026-05-01 10:37 56.65689 9.99526 19445 ft 392 kts 181°
2026-05-01 10:37 56.60171 9.99521 20997 ft 403 kts 181°
2026-05-01 10:37 56.57335 9.99519 21765 ft 408 kts 181°
2026-05-01 10:38 56.54473 9.99517 22502 ft 412 kts 181°
2026-05-01 10:38 56.51597 9.99514 23221 ft 417 kts 181°
2026-05-01 10:38 56.48712 9.99511 23915 ft 421 kts 181°
2026-05-01 10:38 56.45735 9.99508 24606 ft 426 kts 181°
2026-05-01 10:39 56.42753 9.99505 25275 ft 430 kts 181°
2026-05-01 10:39 56.39756 9.99501 25928 ft 434 kts 181°
2026-05-01 10:39 56.36724 9.99497 26537 ft 439 kts 180°
2026-05-01 10:39 56.33674 9.99494 27122 ft 443 kts 180°
2026-05-01 10:40 56.30592 9.99490 27687 ft 447 kts 180°
2026-05-01 10:40 56.27464 9.99487 28231 ft 451 kts 180°
2026-05-01 10:40 56.24310 9.99483 28754 ft 455 kts 180°
2026-05-01 10:40 56.21130 9.99479 29236 ft 459 kts 180°
2026-05-01 10:41 56.17896 9.99476 29718 ft 462 kts 180°
2026-05-01 10:41 56.14709 9.99472 30218 ft 464 kts 180°
2026-05-01 10:41 56.08258 9.99465 31449 ft 461 kts 180°
2026-05-01 10:42 56.05069 9.99465 32078 ft 459 kts 180°
2026-05-01 10:42 56.01862 9.99465 32697 ft 457 kts 180°
2026-05-01 10:42 55.98688 9.99465 33285 ft 455 kts 180°
2026-05-01 10:42 55.95530 9.99464 33873 ft 453 kts 180°
2026-05-01 10:43 55.92412 9.99461 34465 ft 451 kts 180°
2026-05-01 10:43 55.89279 9.99458 35059 ft 449 kts 180°
2026-05-01 10:43 55.86164 9.99456 35646 ft 447 kts 180°
2026-05-01 10:43 55.83060 9.99453 36169 ft 445 kts 180°
2026-05-01 10:44 55.79981 9.99450 36642 ft 443 kts 180°
2026-05-01 10:44 55.76882 9.99447 37100 ft 442 kts 180°
2026-05-01 10:44 55.73821 9.99445 37521 ft 442 kts 180°
2026-05-01 10:44 55.70745 9.99442 37873 ft 442 kts 180°
2026-05-01 10:45 55.67678 9.99439 38194 ft 442 kts 180°
2026-05-01 10:45 55.64604 9.99436 38504 ft 442 kts 180°
2026-05-01 10:45 55.61521 9.99433 38812 ft 442 kts 180°
2026-05-01 10:45 55.58438 9.99430 39075 ft 442 kts 180°
2026-05-01 10:46 55.55365 9.99426 39324 ft 443 kts 180°
2026-05-01 10:46 55.52289 9.99422 39463 ft 446 kts 180°
2026-05-01 10:46 55.49176 9.99417 39452 ft 454 kts 180°
2026-05-01 10:47 55.42786 9.99409 39422 ft 463 kts 180°
2026-05-01 10:47 55.36304 9.99400 39425 ft 466 kts 180°
2026-05-01 10:48 55.29816 9.99392 39422 ft 465 kts 180°
2026-05-01 10:48 55.23356 9.99385 39425 ft 464 kts 180°
2026-05-01 10:49 55.16917 9.99377 39425 ft 464 kts 180°
2026-05-01 10:49 55.10458 9.99370 39423 ft 464 kts 180°
2026-05-01 10:50 55.04009 9.99361 39421 ft 464 kts 180°
2026-05-01 10:50 54.97552 9.99354 39423 ft 464 kts 180°
2026-05-01 10:51 54.91119 9.99264 39427 ft 464 kts 184°
2026-05-01 10:51 54.84719 9.97460 39424 ft 464 kts 191°
2026-05-01 10:52 54.78300 9.95712 39423 ft 465 kts 185°
2026-05-01 10:52 54.71857 9.94743 39421 ft 465 kts 185°
2026-05-01 10:53 54.65388 9.93763 39421 ft 465 kts 185°
2026-05-01 10:53 54.58936 9.92785 39421 ft 465 kts 185°
2026-05-01 10:54 54.52526 9.91795 39419 ft 465 kts 186°
2026-05-01 10:54 54.46095 9.90034 39416 ft 465 kts 189°
2026-05-01 10:55 54.39711 9.88198 39416 ft 465 kts 189°
2026-05-01 10:55 54.33316 9.86368 39419 ft 465 kts 189°
2026-05-01 10:56 54.26939 9.84551 39411 ft 465 kts 189°
2026-05-01 10:56 54.20545 9.82736 39413 ft 465 kts 189°
2026-05-01 10:57 54.14147 9.80927 39413 ft 465 kts 189°
2026-05-01 10:57 54.07786 9.79135 39414 ft 465 kts 189°
2026-05-01 10:58 54.01378 9.77336 39413 ft 465 kts 189°
2026-05-01 10:58 53.94987 9.75548 39413 ft 465 kts 189°
2026-05-01 10:59 53.88636 9.73776 39415 ft 465 kts 189°
2026-05-01 10:59 53.82233 9.71996 39413 ft 465 kts 189°
2026-05-01 11:00 53.75859 9.70232 39413 ft 465 kts 189°
2026-05-01 11:00 53.69488 9.68472 39419 ft 465 kts 189°
2026-05-01 11:01 53.63097 9.66712 39410 ft 465 kts 189°
2026-05-01 11:01 53.56699 9.64955 39399 ft 466 kts 189°
2026-05-01 11:02 53.50281 9.63199 39402 ft 466 kts 189°
2026-05-01 11:02 53.43899 9.61458 39402 ft 466 kts 189°
2026-05-01 11:03 53.37510 9.59721 39402 ft 466 kts 189°
2026-05-01 11:03 53.31103 9.57984 39402 ft 467 kts 189°
2026-05-01 11:04 53.24701 9.56253 39402 ft 467 kts 189°
2026-05-01 11:04 53.18298 9.54528 39410 ft 467 kts 189°
2026-05-01 11:05 53.11850 9.52796 39400 ft 467 kts 189°
2026-05-01 11:05 53.05428 9.51075 39405 ft 467 kts 189°
2026-05-01 11:06 52.99008 9.49361 39400 ft 468 kts 189°
2026-05-01 11:06 52.92585 9.47652 39401 ft 468 kts 189°
2026-05-01 11:07 52.82927 9.45090 39400 ft 468 kts 189°
2026-05-01 11:07 52.76464 9.43383 39400 ft 469 kts 189°
2026-05-01 11:08 52.70028 9.41688 39400 ft 469 kts 189°
2026-05-01 11:09 52.60343 9.39147 39400 ft 470 kts 189°
2026-05-01 11:09 52.53892 9.37460 39400 ft 470 kts 189°
2026-05-01 11:10 52.44199 9.34936 39406 ft 470 kts 188°
2026-05-01 11:10 52.37743 9.33261 39404 ft 470 kts 188°
2026-05-01 11:11 52.31279 9.31589 39419 ft 469 kts 188°
2026-05-01 11:11 52.24765 9.29908 39407 ft 470 kts 188°
2026-05-01 11:12 52.18330 9.28253 39408 ft 471 kts 188°
2026-05-01 11:12 52.11843 9.26590 39406 ft 471 kts 188°
2026-05-01 11:13 52.05349 9.24930 39420 ft 471 kts 188°
2026-05-01 11:13 51.98873 9.23280 39401 ft 471 kts 188°
2026-05-01 11:14 51.92403 9.21635 39407 ft 471 kts 188°
2026-05-01 11:14 51.85912 9.19990 39408 ft 470 kts 188°
2026-05-01 11:15 51.79420 9.18350 39409 ft 471 kts 188°
2026-05-01 11:15 51.72923 9.16713 39408 ft 472 kts 188°
2026-05-01 11:16 51.66448 9.15087 39408 ft 472 kts 188°
2026-05-01 11:16 51.59922 9.13452 39387 ft 472 kts 188°
2026-05-01 11:17 51.53429 9.11830 39408 ft 471 kts 188°
2026-05-01 11:17 51.46934 9.10197 39385 ft 472 kts 189°
2026-05-01 11:18 51.40427 9.08550 39392 ft 472 kts 189°
2026-05-01 11:18 51.33961 9.06917 39396 ft 472 kts 189°
2026-05-01 11:19 51.27452 9.05279 39400 ft 472 kts 189°
2026-05-01 11:19 51.20929 9.03642 39405 ft 473 kts 189°
2026-05-01 11:20 51.14453 9.02021 39409 ft 473 kts 189°
2026-05-01 11:20 51.07940 9.00396 39410 ft 473 kts 189°
2026-05-01 11:21 51.01457 8.98783 39409 ft 473 kts 189°
2026-05-01 11:21 50.94939 8.97166 39407 ft 473 kts 189°
2026-05-01 11:22 50.88424 8.95554 39415 ft 473 kts 189°
2026-05-01 11:22 50.81889 8.93941 39403 ft 473 kts 189°
2026-05-01 11:23 50.75412 8.92348 39400 ft 473 kts 189°
2026-05-01 11:23 50.68862 8.90741 39397 ft 474 kts 188°
2026-05-01 11:24 50.62335 8.89145 39395 ft 474 kts 188°
2026-05-01 11:25 50.52537 8.86756 39389 ft 474 kts 188°
2026-05-01 11:25 50.42770 8.84385 39384 ft 474 kts 188°
2026-05-01 11:26 50.32964 8.82015 39381 ft 474 kts 188°
2026-05-01 11:27 50.26434 8.80442 39379 ft 474 kts 188°
2026-05-01 11:27 50.19910 8.78874 39372 ft 474 kts 188°
2026-05-01 11:28 50.13351 8.77303 39377 ft 474 kts 188°
2026-05-01 11:28 50.06859 8.75752 39378 ft 474 kts 188°
2026-05-01 11:29 49.97041 8.73414 39379 ft 474 kts 188°
2026-05-01 11:30 49.87272 8.71097 39380 ft 474 kts 188°
2026-05-01 11:30 49.80783 8.69564 39374 ft 474 kts 188°
2026-05-01 11:31 49.74213 8.68016 39369 ft 475 kts 188°
2026-05-01 11:31 49.67679 8.66480 39353 ft 475 kts 188°
2026-05-01 11:32 49.61122 8.64943 39358 ft 474 kts 188°
2026-05-01 11:32 49.54584 8.63414 39361 ft 474 kts 188°
2026-05-01 11:33 49.48021 8.61884 39359 ft 475 kts 188°
2026-05-01 11:33 49.41482 8.60363 39366 ft 475 kts 188°
2026-05-01 11:34 49.34934 8.58845 39349 ft 475 kts 188°
2026-05-01 11:34 49.28382 8.57328 39348 ft 475 kts 188°
2026-05-01 11:35 49.21803 8.55811 39344 ft 476 kts 188°
2026-05-01 11:35 49.15239 8.54301 39344 ft 476 kts 188°
2026-05-01 11:36 49.08672 8.52794 39340 ft 476 kts 188°
2026-05-01 11:36 49.02142 8.51300 39335 ft 476 kts 188°
2026-05-01 11:37 48.95548 8.49795 39337 ft 476 kts 188°
2026-05-01 11:37 48.89103 8.48327 39347 ft 476 kts 188°
2026-05-01 11:38 48.82507 8.46830 39317 ft 478 kts 188°
2026-05-01 11:38 48.75909 8.45336 39141 ft 478 kts 188°
2026-05-01 11:39 48.69371 8.43859 39105 ft 475 kts 188°
2026-05-01 11:39 48.62810 8.42381 39093 ft 476 kts 188°
2026-05-01 11:40 48.56206 8.40898 39023 ft 478 kts 188°
2026-05-01 11:40 48.49662 8.39432 38891 ft 478 kts 188°
2026-05-01 11:41 48.43103 8.37966 38971 ft 474 kts 188°
2026-05-01 11:41 48.36550 8.36505 39121 ft 475 kts 188°
2026-05-01 11:41 48.33291 8.35780 39232 ft 476 kts 188°
2026-05-01 11:42 48.30004 8.35050 39314 ft 477 kts 188°
2026-05-01 11:42 48.23388 8.33583 39343 ft 481 kts 187°
2026-05-01 11:43 48.16720 8.32648 39330 ft 478 kts 178°
2026-05-01 11:43 48.10142 8.33796 39311 ft 474 kts 169°
2026-05-01 11:44 48.00367 8.36181 39326 ft 474 kts 169°
2026-05-01 11:44 47.93850 8.37761 39325 ft 475 kts 169°
2026-05-01 11:45 47.87448 8.39307 39327 ft 475 kts 169°
2026-05-01 11:45 47.80892 8.40881 39314 ft 474 kts 169°
2026-05-01 11:46 47.74372 8.42440 39312 ft 474 kts 169°
2026-05-01 11:46 47.67848 8.43916 39303 ft 475 kts 172°
2026-05-01 11:47 47.61255 8.44893 39299 ft 476 kts 173°
2026-05-01 11:47 47.54644 8.45863 39307 ft 476 kts 173°
2026-05-01 11:48 47.48014 8.46834 39316 ft 477 kts 173°
2026-05-01 11:48 47.41410 8.47799 39328 ft 478 kts 173°
2026-05-01 11:49 47.34775 8.48767 39330 ft 478 kts 173°
2026-05-01 11:49 47.28135 8.49734 39334 ft 478 kts 173°
2026-05-01 11:50 47.21488 8.50701 39330 ft 479 kts 173°
2026-05-01 11:50 47.14828 8.51669 39353 ft 479 kts 173°
2026-05-01 11:51 47.08195 8.52631 39382 ft 480 kts 173°
2026-05-01 11:51 47.01563 8.53590 39393 ft 482 kts 173°
2026-05-01 11:52 46.94864 8.54555 39166 ft 485 kts 173°
2026-05-01 11:52 46.91486 8.55041 38951 ft 484 kts 173°
2026-05-01 11:52 46.88232 8.55508 38705 ft 483 kts 173°
2026-05-01 11:53 46.84903 8.55986 38406 ft 482 kts 173°
2026-05-01 11:53 46.81540 8.56467 38047 ft 482 kts 173°
2026-05-01 11:53 46.78229 8.56941 37645 ft 481 kts 173°
2026-05-01 11:53 46.74903 8.57417 37399 ft 477 kts 173°
2026-05-01 11:54 46.68352 8.58351 37472 ft 473 kts 172°
2026-05-01 11:54 46.65071 8.58818 37271 ft 474 kts 172°
2026-05-01 11:54 46.61797 8.59283 36960 ft 469 kts 172°
2026-05-01 11:55 46.58552 8.59743 36547 ft 467 kts 172°
2026-05-01 11:55 46.55346 8.60198 36103 ft 465 kts 172°
2026-05-01 11:55 46.52108 8.60656 35642 ft 464 kts 172°
2026-05-01 11:55 46.48901 8.61110 35189 ft 465 kts 172°
2026-05-01 11:56 46.45656 8.61569 34496 ft 469 kts 172°
2026-05-01 11:56 46.42435 8.62023 33843 ft 467 kts 172°
2026-05-01 11:56 46.39187 8.62481 33185 ft 466 kts 171°
2026-05-01 11:56 46.35934 8.62940 32574 ft 469 kts 171°
2026-05-01 11:57 46.32687 8.63397 31933 ft 470 kts 171°
2026-05-01 11:57 46.29402 8.63859 31290 ft 472 kts 171°
2026-05-01 11:57 46.26102 8.64323 30652 ft 474 kts 171°
2026-05-01 11:57 46.22844 8.64780 30111 ft 474 kts 171°
2026-05-01 11:58 46.19549 8.65240 29865 ft 474 kts 172°
2026-05-01 11:58 46.16250 8.65785 29434 ft 478 kts 167°
2026-05-01 11:58 46.10344 8.69515 28341 ft 454 kts 138°
2026-05-01 11:59 46.08109 8.72630 27596 ft 444 kts 125°
2026-05-01 11:59 46.06426 8.76300 26889 ft 432 kts 116°
2026-05-01 11:59 46.04914 8.80000 26338 ft 420 kts 116°
2026-05-01 12:00 46.01956 8.87192 25232 ft 415 kts 116°
2026-05-01 12:00 46.00493 8.90740 24705 ft 408 kts 116°
2026-05-01 12:00 45.97631 8.97670 23634 ft 394 kts 116°
2026-05-01 12:01 45.96239 9.01034 23088 ft 387 kts 116°
2026-05-01 12:01 45.94870 9.04336 22586 ft 380 kts 116°
2026-05-01 12:01 45.93523 9.07579 22085 ft 373 kts 116°
2026-05-01 12:01 45.91895 9.10457 21620 ft 375 kts 135°
2026-05-01 12:02 45.89841 9.12170 21236 ft 378 kts 156°
2026-05-01 12:02 45.87222 9.12756 21050 ft 380 kts 174°
2026-05-01 12:02 45.84546 9.12756 21017 ft 380 kts 176°
2026-05-01 12:02 45.81909 9.12718 20917 ft 379 kts 176°
2026-05-01 12:03 45.79328 9.12670 20760 ft 366 kts 176°
2026-05-01 12:03 45.76759 9.12613 20287 ft 362 kts 176°
2026-05-01 12:03 45.74276 9.12927 19727 ft 355 kts 161°
2026-05-01 12:03 45.72011 9.14185 18992 ft 351 kts 145°
2026-05-01 12:04 45.70075 9.16313 17738 ft 359 kts 127°
2026-05-01 12:04 45.68692 9.19266 16666 ft 355 kts 109°
2026-05-01 12:04 45.67931 9.22547 15760 ft 349 kts 100°
2026-05-01 12:04 45.67303 9.25876 14812 ft 344 kts 100°
2026-05-01 12:05 45.66682 9.29097 14017 ft 328 kts 100°
2026-05-01 12:05 45.65530 9.35075 13026 ft 293 kts 100°
2026-05-01 12:05 45.65000 9.37812 12673 ft 278 kts 100°
2026-05-01 12:06 45.64486 9.40484 12374 ft 280 kts 100°
2026-05-01 12:06 45.63965 9.43215 12075 ft 288 kts 100°
2026-05-01 12:06 45.63427 9.46033 11627 ft 298 kts 101°
2026-05-01 12:06 45.62879 9.48877 11139 ft 296 kts 101°
2026-05-01 12:07 45.62335 9.51681 10672 ft 293 kts 101°
2026-05-01 12:07 45.61794 9.54471 10212 ft 290 kts 101°
2026-05-01 12:07 45.61254 9.57246 9851 ft 283 kts 101°
2026-05-01 12:07 45.60733 9.59921 9475 ft 279 kts 102°
2026-05-01 12:08 45.60222 9.62544 9112 ft 274 kts 102°
2026-05-01 12:08 45.59732 9.65056 8766 ft 270 kts 103°
2026-05-01 12:08 45.59213 9.67713 8396 ft 267 kts 103°
2026-05-01 12:08 45.58716 9.70254 8042 ft 263 kts 104°
2026-05-01 12:09 45.58223 9.72778 7692 ft 259 kts 104°
2026-05-01 12:09 45.57739 9.75247 7342 ft 256 kts 105°
2026-05-01 12:09 45.57261 9.77682 6931 ft 256 kts 105°
2026-05-01 12:09 45.56776 9.80154 6365 ft 261 kts 105°
2026-05-01 12:10 45.56292 9.82617 6010 ft 257 kts 105°
2026-05-01 12:10 45.55333 9.87492 5294 ft 249 kts 104°
2026-05-01 12:10 45.55208 9.89907 4938 ft 245 kts 81°
2026-05-01 12:11 45.56585 9.94129 4546 ft 226 kts 49°
2026-05-01 12:11 45.57804 9.95461 4310 ft 219 kts 23°
2026-05-01 12:11 45.59278 9.95916 4002 ft 217 kts
2026-05-01 12:12 45.60759 9.95611 3687 ft 215 kts 334°
2026-05-01 12:12 45.61909 9.94282 3461 ft 208 kts 306°
2026-05-01 12:12 45.62577 9.92496 3439 ft 206 kts 290°
2026-05-01 12:12 45.63027 9.90570 3324 ft 200 kts 286°
2026-05-01 12:13 45.63412 9.88674 3045 ft 192 kts 285°
2026-05-01 12:13 45.63755 9.86886 2832 ft 183 kts 284°
2026-05-01 12:13 45.64085 9.85139 2544 ft 183 kts 284°
2026-05-01 12:13 45.64403 9.83443 2378 ft 170 kts 284°
2026-05-01 12:14 45.64703 9.81847 2121 ft 154 kts 284°
2026-05-01 12:14 45.64959 9.80486 1979 ft 137 kts 284°
2026-05-01 12:14 45.65194 9.79186 1763 ft 131 kts 283°
2026-05-01 12:14 45.65400 9.77930 1542 ft 127 kts 284°
2026-05-01 12:15 45.65617 9.76723 1402 ft 128 kts 285°
2026-05-01 12:15 45.65865 9.75481 1261 ft 128 kts 288°
2026-05-01 12:15 45.66109 9.74256 1065 ft 127 kts 287°
2026-05-01 12:15 45.66339 9.73048 890 ft 126 kts 286°
2026-05-01 12:16 45.66562 9.71878 777 ft 116 kts 287°
2026-05-01 12:16 45.66746 9.70889 789 ft 84 kts 286°
2026-05-01 12:16 45.66866 9.70256 791 ft 40 kts 284°
2026-05-01 12:16 45.66926 9.70030 791 ft 23 kts 308°
2026-05-01 12:17 45.67025 9.69933 792 ft 7 kts 334°
2026-05-01 12:17 45.67078 9.69899 793 ft 9 kts 357°
2026-05-01 12:17 45.67102 9.69984 793 ft 12 kts 104°
2026-05-01 12:17 45.67109 9.70090 794 ft 12 kts 14°
2026-05-01 12:18 45.67202 9.70118 796 ft 14 kts 350°
2026-05-01 12:18 45.67215 9.70035 796 ft 10 kts 205°
2026-05-01 12:18 45.67182 9.70022 795 ft 0 kts 195°
2026-05-01 12:32 45.67172 9.70019 795 ft 4 kts 195°
2026-05-01 12:32 45.67103 9.69980 793 ft 6 kts 269°
2026-05-01 12:32 45.67119 9.69897 793 ft 10 kts 287°
2026-05-01 12:33 45.67140 9.69776 793 ft 14 kts 285°
2026-05-01 12:33 45.67169 9.69620 793 ft 16 kts 285°
2026-05-01 12:33 45.67198 9.69466 792 ft 15 kts 284°
2026-05-01 12:33 45.67178 9.69365 792 ft 13 kts 216°
2026-05-01 12:34 45.67076 9.69320 791 ft 17 kts 196°
2026-05-01 12:34 45.67035 9.69344 791 ft 9 kts 105°
2026-05-01 12:34 45.66937 9.69875 792 ft 114 kts 104°
2026-05-01 12:34 45.66685 9.71328 1243 ft 173 kts 105°
2026-05-01 12:35 45.66336 9.73085 2260 ft 204 kts 114°
2026-05-01 12:35 45.65661 9.74993 3418 ft 231 kts 119°
2026-05-01 12:35 45.64896 9.77007 4877 ft 242 kts 119°
2026-05-01 12:35 45.64100 9.79119 6307 ft 250 kts 119°
2026-05-01 12:36 45.63291 9.81269 7660 ft 258 kts 118°
2026-05-01 12:36 45.62552 9.83040 8726 ft 262 kts 128°